This demonstration page uses our WeatherBlox Daily Observations layout. Learn more.

Left ArrowRight Arrow

38.20091, -84.87328

Hourly Observations for April 11, 2016

Temp ( °F °C ) Dew Point ( °F °C ) Humidity (%) Winds ( mph kmh ) Pressure ( in mb ) Visibility ( mi km ) Precip ( " mm )
12:53 am 00:53 Mostly Cloudy 57 13.9 35 1.7 44 44 S 21 33 29.93 1014 10 16 0.00 0.00
1:53 am 01:53 Partly Cloudy 58 14.4 34 1.1 41 41 SSW 23 37 29.92 1013 10 16 0.00 0.00
2:53 am 02:53 Clear 58 14.4 35 1.7 42 42 SSW 20 31 29.93 1014 10 16 0.00 0.00
3:53 am 03:53 Mostly Cloudy 59 15 35 1.7 41 41 SSW 22 35 29.94 1014 10 16 0.00 0.00
4:53 am 04:53 Cloudy 59 15 35 1.7 41 41 SSW 21 33 29.93 1014 10 16 0.00 0.03
5:53 am 05:53 Mostly Clear 58 14.4 35 1.7 42 42 SSW 18 30 29.93 1014 10 16 0.00 0.00
6:53 am 06:53 Partly Cloudy 60 15.6 37 2.8 42 42 SSW 20 31 29.95 1014 10 16 0.00 0.00
7:53 am 07:53 Cloudy 60 15.6 38 3.3 44 44 SW 16 26 29.97 1015 10 16 0.00 0.00
8:53 am 08:53 Cloudy 61 16.1 41 5 48 48 SSW 16 26 29.98 1015 10 16 0.00 0.00
9:53 am 09:53 Cloudy 60 15.6 41 5 50 50 SSW 16 26 29.98 1015 10 16 0.00 0.00
10:53 am 10:53 Cloudy with Light Rain 58 14.4 45 7.2 62 62 S 12 19 29.98 1015 9 14 0.00 0.03
11:13 am 11:13 Cloudy with Nearby Thunderstorms 58 14.4 45 7.2 62 62 S 10 17 29.97 1015 10 16 0.00 0.03
11:28 am 11:28 Cloudy with Rain 55 12.8 48 8.9 77 77 SSW 9 15 29.97 1015 5 8 0.01 0.25
11:53 am 11:53 Cloudy with Light Rain 54 12.2 49 9.4 83 83 SSW 6 9 29.96 1015 8 13 0.05 1.27
12:53 pm 12:53 Cloudy 60 15.6 53 11.7 78 78 S 6 9 29.93 1014 10 16 0.00 0.03
1:53 pm 13:53 Cloudy 65 18.3 50 10 59 59 SSW 15 24 29.91 1013 10 16 0.00 0.00
2:53 pm 14:53 Cloudy 68 20 51 10.6 55 55 SSW 20 31 29.88 1012 10 16 0.00 0.00
3:53 pm 15:53 Cloudy with Light Rain 61 16.1 55 12.8 81 81 SW 9 15 29.89 1012 3 5 0.08 2.03
4:53 pm 16:53 Cloudy 61 16.1 57 13.9 87 87 SSE 5 7 29.86 1011 10 16 0.03 0.76
5:53 pm 17:53 Cloudy 65 18.3 53 11.7 66 66 SSW 14 22 29.85 1011 10 16 0.00 0.00
6:46 pm 18:46 Cloudy with Rain 60 15.6 56 13.3 86 86 W 9 15 29.91 1013 3 4 0.03 0.76
6:53 pm 18:53 Cloudy with Light Rain 59 15 56 13.3 90 90 NW 13 20 29.91 1013 4 6 0.04 1.02
7:02 pm 19:02 Cloudy with Rain 56 13.3 53 11.7 90 90 NW 8 13 29.91 1013 3 5 0.01 0.25
7:08 pm 19:08 Cloudy with Rain 56 13.3 52 11.1 87 87 NW 8 13 29.94 1014 3 4 0.02 0.51
7:25 pm 19:25 Cloudy with Rain 54 12.2 50 10 87 87 NW 12 19 29.94 1014 3 4 0.06 1.52
7:41 pm 19:41 Cloudy with Rain 53 11.7 50 10 89 89 NW 10 17 29.94 1014 2 3 0.10 2.54
7:49 pm 19:49 Cloudy with Rain 54 12 50 10 88 88 NW 8 13 29.94 1014 3 4 0.12 3.05
7:53 pm 19:53 Cloudy with Rain 53 11.7 50 10 89 89 NNW 7 11 29.94 1014 2 3 0.14 3.56
8:09 pm 20:09 Cloudy with Rain 53 11.7 50 10 89 89 NW 8 13 29.97 1015 3 5 0.05 1.27
8:30 pm 20:30 Cloudy with Rain 52 11.1 49 9.4 89 89 WNW 7 11 29.97 1015 5 8 0.08 2.03
8:49 pm 20:49 Cloudy with Light Rain 52 11 48 9 88 88 NW 12 19 30.00 1016 5 8 0.12 3.05
8:53 pm 20:53 Cloudy with Rain 51 10.6 47 8.3 86 86 NW 10 17 29.98 1015 6 10 0.12 3.05
9:50 pm 21:50 Cloudy with Light Rain 48 9 46 8 94 94 NW 7 11 30.06 1018 5 8 0.08 2.03
9:53 pm 21:53 Cloudy with Light Rain 49 9.4 46 7.8 90 90 NW 12 19 30.03 1017 5 8 0.08 2.03
10:05 pm 22:05 Cloudy with Light Rain 48 8.9 43 6.1 83 83 NW 10 17 30.09 1019 6 10 0.02 0.51
10:19 pm 22:19 Cloudy with Light Rain 47 8.3 41 5 80 80 NW 10 17 30.09 1019 8 13 0.03 0.76
10:53 pm 22:53 Cloudy with Light Rain 46 7.8 41 5 83 83 NW 7 11 30.06 1018 9 14 0.06 1.52
11:53 pm 23:53 Cloudy 46 7.8 43 6.1 89 89 NW 5 7 30.07 1018 10 16 0.01 0.25

Powered by AerisWeather